Location: Isle-of-Palms
(32.8045°N, 79.7399°W)
Time: 22:14:56
(UTC+00:00)

Hubble Space Telescope - Pass Details

Date: 15 August 2022
Orbit: 532 x 535 km, 28.5° (Epoch: 23 September)

Event Time Altitude Azimuth Distance (km) Brightness Sun altitude
Rises 02:21:48 0° 260° (W) 2,666 4.9 -26.1°
Reaches altitude 10° 02:25:01 10° 234° (SW) 1,774 3.5 -26.6°
Enters shadow 02:25:04 10° 233° (SW) 1,764 3.5 -26.6°
